Regional Weather Roundup
Issued by NWS Charleston, SC

Current Version | Previous Version | Graphics & Text | Print | Product List | Glossary On
Versions: 1 2 3 4 5 6 7 8 9 10 11 12 13 14 15 16 17 18 19 20 21 22 23 24 25 26 27 28 29 30 31 32 33 34 35 36 37 38 39 40 41 42 43 44 45 46 47 48 49 50
350 ASUS42 KCHS 271727 RWRCHS REGIONAL WEATHER ROUNDUP NATIONAL WEATHER SERVICE CHARLESTON SC 100 PM EDT TUE JUN 27 2017 NOTE: "FAIR" INDICATES FEW OR NO CLOUDS BELOW 12,000 FEET WITH NO SIGNIFICANT WEATHER AND/OR OBSTRUCTIONS TO VISIBILITY. NOT ALL STATIONS ARE QUALITY CONTROLLED. USE DATA WITH CAUTION... ESPECIALLY DEWPOINT OBSERVATIONS. SCZ027-030-031-034>040-042>050-271800- ...SOUTHEAST SOUTH CAROLINA... CITY SKY/WX TMP DP RH WIND PRES REMARKS N CHARLESTON CLOUDY 86 63 45 VRB5 30.04S WATERFRONT PRK N/A 85 68 56 VRB2 30.04R JOHNS ISLAND PTSUNNY 84 68 58 E7 30.04F PINOPOLIS N/A 84 68 58 CALM 29.98S MONCKS CORNER FAIR 82 54 36 N3 30.04F SUMMERVILLE FAIR 84 63 48 CALM 30.05S BEAUFORT MCAS PTSUNNY 85 69 58 E7 30.03F BEAUFORT ARPT FAIR 82 68 61 NE7 30.03F HILTON HEAD IS PTSUNNY 86 70 58 N10 30.04S HX 90 WALTERBORO MOSUNNY 84 63 48 N3 30.04F ALLENDALE FAIR 86 61 42 N6G13 30.03F ...SOUTHERN MIDLANDS AND PEE DEE... CITY SKY/WX TMP DP RH WIND PRES REMARKS GEORGETOWN PTSUNNY 82 64 54 E5 30.05S KINGSTREE FAIR 84 61 45 W5 30.04S ORANGEBURG MOSUNNY 87 61 41 W8 30.05R BARNWELL CLOUDY 86 64 48 CALM 30.04F AIKEN FAIR 82 59 44 NW10 30.09S MANNING FAIR 84 64 51 NW9G17 30.04S COLUMBIA PTSUNNY 84 62 47 NE6 30.05R SUMTER NOT AVBL FLORENCE PTSUNNY 83 62 49 NW7 30.04S MYRTLE BEACH SUNNY 84 61 45 N5 30.05S N MYRTLE BEACH CLOUDY 85 62 46 CALM 30.03S $$ GAZ063-065-086>088-099>101-113>116-118-119-134>141-150-271800- ...SOUTHEAST GEORGIA... CITY SKY/WX TMP DP RH WIND PRES REMARKS SAVANNAH ARPT TSTM 78 66 66 N15G25 30.03F HUNTER AAF MOSUNNY 84 73 70 E7 29.99F HX 91 FORT STEWART LGT RAIN 82 72 71 S5 30.00F STATESBORO PTSUNNY 85 68 56 N7 30.04S SYLVANIA CLOUDY 84 69 59 N3 30.05F CLAXTON PTSUNNY 82 72 71 N6 30.03F ...CSRA...CENTRAL AND FAR SOUTHEAST GEORGIA... CITY SKY/WX TMP DP RH WIND PRES REMARKS THOMSON MOSUNNY 82 57 42 NE8 30.12S AUGUSTA-BUSH MOSUNNY 88 58 36 N9 30.04S AUGUSTA-DANIEL MOSUNNY 87 56 34 N7 30.06S SWAINSBORO FAIR 84 64 51 N6 30.06S VIDALIA PTSUNNY 84 70 61 N8 30.05R EASTMAN FAIR 85 55 36 N3 30.08S HAZLEHURST FAIR 88 71 56 N5 30.02F HX 94 ALMA MOSUNNY 86 73 65 E5 30.02F HX 93 WAYCROSS CLOUDY 87 76 69 N3 30.02F HX 98 JESUP FAIR 84 72 65 E3 30.02F BAXLEY PTSUNNY 86 75 70 N3 30.01F HX 95 BRUNSWICK CLOUDY 82 75 78 NE12 30.03S SAINT SIMONS RAIN 79 75 87 NE16G22 30.02S FOG $$ SCZ027-028-034-036>038-045-046-048>050-GAZ119-141-271800- ...LAKE AND SUPPLEMENTAL COASTAL OBSERVATIONS... STATION/POSITION TIME TEMP WIND PRES WAVE SWELL AIR SEA DIR/SP/G HT/PER HT/PER/DIR (UTC) (F) (DEG/KT/KT) (MB) (FT/S) (FT/S/D) WINYAH BAY 1630 80 120/ 4 1017.0S LAKE MURRAY 1720 82 CALM / 4 1016.6 ACE BASIN NERRS 1645 84 20/ 2 1017.0S FORT PULASKI 1700 81 83 100/ 5/ 7 1017.2 SAPELO ISLAND 1700 79 70/ 6 1017.0 $$ ANZ835-935-AMZ111-154-330-350-352-354-370-450-454-472-271800- ...C-MAN AND BUOY OBSERVATIONS... STATION/POSITION TIME TEMP WIND PRES WAVE SWELL AIR SEA DIR/SP/G HT/PER HT/PER/DIR (UTC) (F) (DEG/KT/KT) (MB) (FT/S) (FT/S/D) BUOY 41004 1710 79 81 50/ 8/ 10 1017.1 BUOY 41008 1650 80 82 60/ 10/ 10 1016.7S 1/ 7 2/150/ 7 FOLLY BEACH CMAN 1700 82 80/ 5/ 6 1018.2R CAPERS NEARSHORE 1708 86 83 50/ 4/ 6 1017.4R FRIPP NEARSHORE 1708 81 83 80/ 8/ 12 1016.6F STATION/POSITION TIME TEMP WIND PRES WAVE SWELL AIR SEA DIR/SP/G HT/PER HT/PER/DIR (UTC) (F) (DEG/KT/KT) (MB) (FT/S) (FT/S/D) 5E ST. MARYS GA 1700 80 N/A 2/ 8 FRYING PAN BUOY 1710 79 80 20/ 4/ 6 1017.0 BUOY 41025 1650 79 81 10/ 6/ 8 1016.7F 2/ 7 2/ 70/ 7 CAPE LOOKOUT NC 1700 79 150/ 7/ 8 1016.5F BUOY 41002 1650 77 80 280/ 8/ 10 1017.3S 3/ 6 3/220/ 6 BUOY 41010 1710 83 84 230/ 8/ 10 1016.5 ST AUGUSTINE FL 1700 78 79 30/ 13/ 13 1016.7S $$

USA.gov is the U.S. government's official web portal to all federal, state and local government web resources and services.